EN

Hourly Weather Papa

Today, 3 March, Wednesday

Time Temperature Precipitation Wind Pressure Humidity
00:00 +5°C° 0 mm 2 mps 762 mmHg 70%
01:00 +5°C° 0 mm 2 mps 762 mmHg 72%
02:00 +4°C° 0 mm 2 mps 761 mmHg 72%
03:00 +4°C° 0 mm 2 mps 761 mmHg 73%
04:00 +4°C° 0 mm 2 mps 761 mmHg 74%
05:00 +4°C° 0 mm 2 mps 761 mmHg 75%
06:00 +4°C° 0 mm 1 mps 761 mmHg 75%
07:00 +4°C° 0 mm 1 mps 761 mmHg 75%
08:00 +5°C° 0 mm 2 mps 761 mmHg 70%
09:00 +7°C° 0 mm 2 mps 760 mmHg 64%
10:00 +9°C° 0 mm 2 mps 760 mmHg 58%
11:00 +10°C° 0 mm 2 mps 760 mmHg 54%
12:00 +12°C° 0 mm 2 mps 760 mmHg 49%
13:00 +14°C° 0 mm 2 mps 759 mmHg 45%
14:00 +14°C° 0 mm 2 mps 759 mmHg 46%
15:00 +14°C° 0 mm 2 mps 758 mmHg 46%
16:00 +14°C° 0 mm 2 mps 757 mmHg 46%
17:00 +12°C° 0 mm 2 mps 757 mmHg 51%
18:00 +10°C° 0 mm 2 mps 757 mmHg 55%
19:00 +8°C° 0 mm 2 mps 757 mmHg 60%
20:00 +8°C° 0 mm 2 mps 757 mmHg 61%
21:00 +7°C° 0 mm 2 mps 756 mmHg 63%
22:00 +7°C° 0 mm 2 mps 756 mmHg 64%
23:00 +6°C° 0 mm 2 mps 756 mmHg 66%

Tomorrow, 4 March, Thursday

Time Temperature Precipitation Wind Pressure Humidity
00:00 +6°C° 0 mm 2 mps 755 mmHg 67%
01:00 +6°C° 0 mm 2 mps 755 mmHg 69%
02:00 +5°C° 0 mm 2 mps 754 mmHg 70%
03:00 +5°C° 0 mm 2 mps 754 mmHg 70%
04:00 +5°C° 0 mm 2 mps 753 mmHg 71%
05:00 +5°C° 0 mm 2 mps 753 mmHg 72%
06:00 +5°C° 0 mm 2 mps 753 mmHg 72%
07:00 +4°C° 0 mm 2 mps 752 mmHg 73%
08:00 +6°C° 0 mm 2 mps 752 mmHg 67%
09:00 +8°C° 0 mm 2 mps 752 mmHg 61%
10:00 +10°C° 0 mm 2 mps 751 mmHg 56%
11:00 +12°C° 0 mm 2 mps 751 mmHg 53%
12:00 +14°C° 0 mm 2 mps 750 mmHg 49%
13:00 +15°C° 0 mm 2 mps 750 mmHg 46%
14:00 +15°C° 0 mm 2 mps 749 mmHg 48%
15:00 +14°C° 0 mm 2 mps 748 mmHg 50%
16:00 +14°C° 0 mm 2 mps 748 mmHg 53%
17:00 +13°C° 0 mm 2 mps 747 mmHg 57%
18:00 +12°C° 0 mm 2 mps 747 mmHg 61%
19:00 +9°C° 0 mm 2 mps 747 mmHg 65%
20:00 +9°C° 0 mm 2 mps 747 mmHg 66%
21:00 +8°C° 0 mm 2 mps 747 mmHg 68%
22:00 +8°C° 0 mm 2 mps 746 mmHg 69%
23:00 +8°C° 0 mm 2 mps 746 mmHg 71%

Day after tomorrow, 5 March, Friday

Time Temperature Precipitation Wind Pressure Humidity
00:00 +8°C° 0 mm 2 mps 746 mmHg 72%
01:00 +7°C° 0 mm 2 mps 746 mmHg 74%
02:00 +7°C° 0 mm 2 mps 746 mmHg 76%
03:00 +7°C° 0 mm 3 mps 746 mmHg 79%
04:00 +7°C° 0 mm 3 mps 745 mmHg 81%
05:00 +7°C° 0 mm 3 mps 746 mmHg 82%
06:00 +7°C° 0 mm 3 mps 746 mmHg 84%
07:00 +5°C° 0 mm 3 mps 746 mmHg 85%
08:00 +6°C° 0 mm 4 mps 747 mmHg 83%
09:00 +6°C° 0 mm 4 mps 747 mmHg 81%
10:00 +6°C° 0 mm 5 mps 747 mmHg 79%
11:00 +7°C° 0 mm 6 mps 748 mmHg 75%
12:00 +7°C° 0 mm 6 mps 748 mmHg 72%
13:00 +7°C° 0 mm 6 mps 748 mmHg 68%
14:00 +7°C° 0 mm 6 mps 749 mmHg 66%
15:00 +5°C° 0 mm 6 mps 749 mmHg 65%
16:00 +5°C° 0 mm 6 mps 749 mmHg 63%
17:00 +4°C° 0 mm 6 mps 750 mmHg 62%
18:00 +3°C° 0 mm 6 mps 751 mmHg 61%
19:00 +2°C° 0 mm 6 mps 752 mmHg 60%
20:00 +2°C° 0 mm 6 mps 753 mmHg 58%
21:00 +1°C° 0 mm 6 mps 754 mmHg 56%
22:00 -1°C° 0 mm 7 mps 755 mmHg 54%
23:00 -1°C° 0 mm 6 mps 755 mmHg 57%

6 March, Saturday

Time Temperature Precipitation Wind Pressure Humidity
00:00 -2°C° 0 mm 6 mps 756 mmHg 59%
01:00 -1°C° 0 mm 5 mps 757 mmHg 62%
02:00 -2°C° 0 mm 5 mps 757 mmHg 64%
03:00 -2°C° 0 mm 4 mps 757 mmHg 65%
04:00 -3°C° 0 mm 4 mps 758 mmHg 67%
05:00 -3°C° 0 mm 4 mps 758 mmHg 67%
06:00 -3°C° 0 mm 4 mps 758 mmHg 67%
07:00 -2°C° 0 mm 3 mps 759 mmHg 67%
08:00 -1°C° 0 mm 4 mps 759 mmHg 60%
09:00 0°C° 0 mm 4 mps 760 mmHg 53%
10:00 +1°C° 0 mm 5 mps 760 mmHg 46%
11:00 +2°C° 0 mm 5 mps 760 mmHg 44%
12:00 +3°C° 0 mm 4 mps 760 mmHg 41%
13:00 +3°C° 0 mm 4 mps 760 mmHg 38%
14:00 +3°C° 0 mm 4 mps 759 mmHg 38%
15:00 +3°C° 0 mm 4 mps 759 mmHg 38%
16:00 +3°C° 0 mm 4 mps 759 mmHg 37%
17:00 +2°C° 0 mm 3 mps 759 mmHg 42%
18:00 +2°C° 0 mm 2 mps 759 mmHg 46%
19:00 +2°C° 0 mm 1 mps 759 mmHg 50%
20:00 +1°C° 0 mm 1 mps 760 mmHg 51%
21:00 +1°C° 0 mm 1 mps 760 mmHg 51%
22:00 0°C° 0 mm 0 mps 760 mmHg 52%
23:00 -1°C° 0 mm 0 mps 760 mmHg 52%

7 March, Sunday

Time Temperature Precipitation Wind Pressure Humidity
00:00 0°C° 0 mm 1 mps 759 mmHg 52%
01:00 0°C° 0 mm 1 mps 759 mmHg 53%
02:00 0°C° 0 mm 1 mps 759 mmHg 53%
03:00 0°C° 0 mm 1 mps 758 mmHg 53%
04:00 0°C° 0 mm 1 mps 758 mmHg 53%
05:00 0°C° 0 mm 1 mps 758 mmHg 53%
06:00 0°C° 0 mm 1 mps 757 mmHg 53%
07:00 0°C° 0 mm 1 mps 757 mmHg 53%
08:00 +1°C° 0 mm 2 mps 757 mmHg 48%
09:00 +2°C° 0 mm 2 mps 757 mmHg 43%
10:00 +3°C° 0 mm 3 mps 756 mmHg 38%
11:00 +4°C° 0 mm 3 mps 756 mmHg 38%
12:00 +5°C° 0 mm 3 mps 755 mmHg 37%
13:00 +7°C° 0 mm 3 mps 754 mmHg 37%
14:00 +7°C° 0 mm 3 mps 754 mmHg 38%
15:00 +7°C° 0 mm 3 mps 753 mmHg 39%
16:00 +7°C° 0 mm 3 mps 752 mmHg 39%
17:00 +4°C° 0 mm 3 mps 752 mmHg 44%
18:00 +4°C° 0 mm 2 mps 752 mmHg 49%
19:00 +2°C° 0 mm 2 mps 752 mmHg 53%
20:00 +2°C° 0 mm 2 mps 752 mmHg 55%
21:00 +2°C° 0 mm 2 mps 752 mmHg 56%
22:00 +1°C° 0 mm 2 mps 752 mmHg 57%
23:00 +1°C° 0 mm 2 mps 751 mmHg 59%

8 March, Monday

Time Temperature Precipitation Wind Pressure Humidity
00:00 +1°C° 0 mm 2 mps 751 mmHg 61%
01:00 +2°C° 0 mm 1 mps 751 mmHg 62%
02:00 +1°C° 0 mm 1 mps 751 mmHg 63%
03:00 +1°C° 0 mm 1 mps 750 mmHg 64%
04:00 +1°C° 0 mm 1 mps 750 mmHg 66%
05:00 +1°C° 0 mm 1 mps 750 mmHg 65%
06:00 +1°C° 0 mm 1 mps 750 mmHg 64%
07:00 +1°C° 0 mm 1 mps 750 mmHg 64%
08:00 +2°C° 0 mm 2 mps 751 mmHg 58%
09:00 +3°C° 0 mm 3 mps 751 mmHg 53%
10:00 +5°C° 0 mm 4 mps 751 mmHg 47%
11:00 +5°C° 0 mm 4 mps 751 mmHg 47%
12:00 +6°C° 0 mm 4 mps 751 mmHg 47%
13:00 +7°C° 0 mm 4 mps 752 mmHg 46%
14:00 +6°C° 0 mm 4 mps 752 mmHg 47%
15:00 +6°C° 0 mm 5 mps 752 mmHg 48%
16:00 +6°C° 0 mm 5 mps 752 mmHg 49%
17:00 +4°C° 0 mm 4 mps 752 mmHg 50%
18:00 +3°C° 0 mm 4 mps 753 mmHg 51%
19:00 0°C° 0 mm 4 mps 754 mmHg 51%
20:00 0°C° 0 mm 3 mps 754 mmHg 55%
21:00 -1°C° 0 mm 3 mps 755 mmHg 60%
22:00 -1°C° 0 mm 3 mps 756 mmHg 64%
23:00 -2°C° 0 mm 3 mps 756 mmHg 61%
Show more

We Need Your Consent

Meteoprog and our Service Providers may store and access personal data such as cookies, device identifiers or other similar technologies on your device and process such data to personalise content and ads, as well as provide social media features and to analyse the traffic.

  • Store and/or access information on your device

    Cookies, device identifiers or other information can be stored or accessed on your device for the purposes indicated above.

  • Personalised ads and content, ad and content measurement, audience insights, and products development

    Ads and content can be personalised based on a profile. More data can be added to better personalise ads and content. Ad and content performance can be measured. Insights about the audience who saw the ads and content can be derived. Such data can be used to develop or improve user’s experience, systems and software.

By clicking ‘I Agree’ you will allow the use of indicated cookies, device identifiers, web beacons or other similar technologies. Your settings can be changed in the browser on your device.

For certain purposes, legitimate interests may be relied on, rather than consent. You can read more about this in our Privacy and Cookie Policy.